Brooklyn Center, MN

10:44 PM CST on February 07, 2016 (GMT -0600)
Crystal

Weather History for KMIC - December, 2012

Change the Weather History Date:

Monday, December 3, 2012

  Actual Average Record
Temperature  
Mean Temperature 47 °F -  
Max Temperature 53 °F 34 °F 60 °F (1998)
Min Temperature 41 °F 19 °F -6 °F (1991)
Degree Days  
Heating Degree Days 18    
Moisture  
Dew Point 43 °F    
Average Humidity 85    
Maximum Humidity 100    
Minimum Humidity 51    
Precipitation  
Precipitation 0.02 in - - ()
Sea Level Pressure  
Sea Level Pressure 29.66 in    
Wind  
Wind Speed 12 mph (SSW)    
Max Wind Speed 20 mph    
Max Gust Speed 28 mph    
Visibility 5 miles    
Events Rain    
Averages and records for this station are not official NWS values.
T = Trace of Precipitation, MM = Missing Value Source: NWS Daily Summary

Daily Weather History Graph

Daily Weather History Graph

Search for Another Location

Airport or City:

Trip Planner

Search our weather history database for the weather conditions in past years. The results will help you decide how hot, cold, wet, or windy it might be!

Date:

Astronomy

Dec. 03, 2012 Rise Set
Actual Time 7:34 AM CST 4:32 PM CST
Civil Twilight 7:01 AM CST 5:05 PM CST
Nautical Twilight 6:24 AM CST 5:42 PM CST
Astronomical Twilight 5:48 AM CST 6:17 PM CST
Moon 9:27 PM CST (12/3) 10:51 AM CST (12/3)
Length of Visible Light 10h 04m
Length of Day
8h 57m
Waning Gibbous, 78% of the Moon is Illuminated
Dec 3
Waning Gibbous
Dec 6
Last Quarter
Dec 13
New
Dec 19
First Quarter
Dec 28
Full

Hourly Weather History & Observations

Time (CST) Temp. Windchill Dew Point Humidity Pressure Visibility Wind Dir Wind Speed Gust Speed Precip Events Conditions
12:53 AM 41.0 °F 34.3 °F 37.9 °F 89% 29.78 in 5.0 mi SSE 11.5 mph - N/A   Clear
1:37 AM 42.8 °F 36.6 °F 39.2 °F 87% 29.74 in 4.0 mi SSE 11.5 mph - N/A   Partly Cloudy
1:53 AM 43.0 °F 36.8 °F 41.0 °F 93% 29.75 in 4.0 mi SSE 11.5 mph - N/A   Mostly Cloudy
2:45 AM 44.6 °F 38.8 °F 42.8 °F 93% 29.72 in 4.0 mi SSE 11.5 mph - N/A   Scattered Clouds
2:53 AM 44.1 °F 38.6 °F 42.1 °F 93% 29.73 in 4.0 mi SSE 10.4 mph - N/A   Scattered Clouds
3:50 AM 44.6 °F 37.8 °F 42.8 °F 93% 29.67 in 5.0 mi SSE 15.0 mph 23.0 mph N/A   Mostly Cloudy
3:53 AM 45.0 °F 38.2 °F 43.0 °F 93% 29.69 in 5.0 mi SSE 15.0 mph - N/A   Mostly Cloudy
4:46 AM 46.4 °F 40.4 °F 44.6 °F 93% 29.64 in 2.0 mi SSE 13.8 mph - N/A   Overcast
4:53 AM 46.0 °F 40.2 °F 44.1 °F 93% 29.67 in 2.0 mi SSE 12.7 mph - N/A   Overcast
5:26 AM 46.4 °F 41.1 °F 44.6 °F 93% 29.64 in 2.0 mi SSE 11.5 mph - N/A   Overcast
5:46 AM 46.4 °F 41.5 °F 46.4 °F 100% 29.63 in 1.8 mi SSE 10.4 mph 19.6 mph N/A   Overcast
5:53 AM 46.9 °F - 46.0 °F 97% 29.65 in 1.8 mi SSE 12.7 mph - N/A   Overcast
6:20 AM 48.2 °F - 46.4 °F 93% 29.61 in 2.0 mi SSE 13.8 mph 21.9 mph N/A   Overcast
6:53 AM 48.0 °F - 46.9 °F 96% 29.61 in 3.0 mi SSE 11.5 mph - N/A   Overcast
7:18 AM 48.2 °F - 46.4 °F 93% 29.58 in 4.0 mi SSE 12.7 mph - N/A   Overcast
7:53 AM 50.0 °F - 48.0 °F 93% 29.59 in 2.5 mi South 8.1 mph - N/A   Overcast
8:10 AM 50.0 °F - 48.2 °F 94% 29.58 in 1.5 mi South 6.9 mph - N/A   Overcast
8:24 AM 50.0 °F - 48.2 °F 94% 29.57 in 1.0 mi SSE 5.8 mph - N/A   Overcast
9:11 AM 50.0 °F - 50.0 °F 100% 29.55 in 1.0 mi SSE 12.7 mph - 0.00 in   Overcast
9:53 AM 52.0 °F - 51.1 °F 97% 29.56 in 1.2 mi South 10.4 mph - 0.00 in   Overcast
10:53 AM 53.1 °F - 52.0 °F 96% 29.56 in 1.2 mi SSW 9.2 mph - 0.01 in Rain Light Rain
11:13 AM 53.6 °F - 51.8 °F 94% 29.54 in 1.5 mi SW 9.2 mph - 0.01 in Rain Light Rain
11:20 AM 53.6 °F - 51.8 °F 94% 29.54 in 3.0 mi SW 11.5 mph 20.7 mph 0.01 in   Overcast
11:43 AM 53.6 °F - 51.8 °F 94% 29.53 in 4.0 mi WSW 11.5 mph - 0.01 in   Overcast
11:53 AM 53.1 °F - 51.1 °F 93% 29.54 in 4.0 mi SW 11.5 mph 17.3 mph 0.01 in   Overcast
12:53 PM 53.1 °F - 46.0 °F 77% 29.57 in 7.0 mi West 17.3 mph 24.2 mph N/A   Mostly Cloudy
1:31 PM 53.6 °F - 44.6 °F 72% 29.57 in 8.0 mi West 10.4 mph 21.9 mph N/A   Partly Cloudy
1:53 PM 53.1 °F - 42.1 °F 66% 29.60 in 10.0 mi West 12.7 mph - N/A   Clear
2:53 PM 53.1 °F - 41.0 °F 64% 29.62 in 10.0 mi West 10.4 mph - N/A   Mostly Cloudy
3:53 PM 52.0 °F - 39.9 °F 63% 29.69 in 10.0 mi West 19.6 mph 27.6 mph N/A   Mostly Cloudy
4:53 PM 46.9 °F - 39.0 °F 74% 29.74 in 10.0 mi West 9.2 mph - N/A   Clear
5:53 PM 46.0 °F 40.6 °F 37.0 °F 71% 29.79 in 10.0 mi West 11.5 mph - N/A   Clear
6:53 PM 43.0 °F 39.5 °F 33.1 °F 68% 29.82 in 10.0 mi SW 5.8 mph - N/A   Clear
7:53 PM 42.1 °F 38.4 °F 33.1 °F 70% 29.85 in 10.0 mi SW 5.8 mph - N/A   Clear
8:53 PM 43.0 °F 37.7 °F 32.0 °F 65% 29.86 in 10.0 mi WSW 9.2 mph - N/A   Clear
9:53 PM 44.1 °F 37.1 °F 28.9 °F 55% 29.87 in 10.0 mi West 15.0 mph - N/A   Clear
10:53 PM 44.1 °F 37.1 °F 27.0 °F 51% 29.88 in 10.0 mi West 15.0 mph - N/A   Clear